📊 Raw Sensor Data
Showing records 46726 to 46750 of 85,075 total
| ID | Distance (ft) | Battery V | Battery A | Int Temp (°F) | Int Humid (%) | Ext Temp (°F) | Solar V | RSSI | SNR | Time Stamp |
|---|---|---|---|---|---|---|---|---|---|---|
| 38362 | -- | 3.95 | 7 | 92 | 40 | 84 | 5.10 | -85 | 8 | 04/20/2025 04:00 PM |
| 38361 | -- | 3.95 | 0 | 90 | 40 | 79 | 5.10 | -85 | 8 | 04/20/2025 03:45 PM |
| 38360 | -- | 3.95 | 0 | 90 | 39 | 78 | 5.10 | -86 | 7 | 04/20/2025 03:30 PM |
| 38359 | -- | 3.95 | 0 | 90 | 39 | 77 | 5.10 | -85 | 8 | 04/20/2025 03:15 PM |
| 38358 | -- | 3.95 | 7 | 88 | 39 | 78 | 5.10 | -85 | 8 | 04/20/2025 03:00 PM |
| 38357 | -- | 3.95 | 7 | 88 | 38 | 76 | 5.10 | -86 | 8 | 04/20/2025 02:45 PM |
| 38356 | -- | 3.95 | 7 | 87 | 38 | 77 | 5.10 | -86 | 7 | 04/20/2025 02:30 PM |
| 38355 | -- | 3.95 | 7 | 85 | 38 | 75 | 5.10 | -86 | 9 | 04/20/2025 02:15 PM |
| 38354 | -- | 4.09 | 7 | 84 | 38 | 73 | 5.10 | -93 | 7 | 04/20/2025 02:00 PM |
| 38353 | -- | 3.95 | 7 | 84 | 38 | 73 | 5.10 | -85 | 9 | 04/20/2025 01:45 PM |
| 38352 | -- | 3.94 | 0 | 83 | 38 | 77 | 5.10 | -86 | 8 | 04/20/2025 01:30 PM |
| 38351 | -- | 4.02 | 0 | 81 | 38 | 71 | 5.10 | -85 | 9 | 04/20/2025 01:00 PM |
| 38350 | -- | 4.06 | 7 | 80 | 38 | 75 | 5.10 | -89 | 7 | 04/20/2025 12:45 PM |
| 38349 | -- | 4.03 | 7 | 78 | 38 | 73 | 5.10 | -88 | 8 | 04/20/2025 12:30 PM |
| 38348 | -- | 4.12 | 0 | 76 | 39 | 68 | 5.10 | -83 | 8 | 04/20/2025 12:15 PM |
| 38347 | -- | 3.94 | 0 | 74 | 39 | 72 | 5.10 | -85 | 9 | 04/20/2025 12:00 PM |
| 38346 | -- | 3.94 | 7 | 73 | 39 | 72 | 5.10 | -85 | 8 | 04/20/2025 11:45 AM |
| 38345 | -- | 3.94 | 7 | 72 | 38 | 67 | 5.10 | -87 | 8 | 04/20/2025 11:30 AM |
| 38344 | -- | 3.94 | 7 | 71 | 39 | 71 | 5.10 | -84 | 9 | 04/20/2025 11:16 AM |
| 38343 | -- | 3.94 | 0 | 69 | 38 | 66 | 5.10 | -83 | 8 | 04/20/2025 11:00 AM |
| 38342 | -- | 3.94 | 0 | 68 | 38 | 69 | 5.10 | -86 | 7 | 04/20/2025 10:45 AM |
| 38341 | -- | 3.99 | 8 | 66 | 39 | 65 | 5.10 | -86 | 8 | 04/20/2025 10:30 AM |
| 38340 | -- | 3.94 | 7 | 64 | 39 | 62 | 5.10 | -84 | 8 | 04/20/2025 10:15 AM |
| 38339 | -- | 3.94 | 0 | 62 | 39 | 63 | 5.10 | -83 | 9 | 04/20/2025 10:00 AM |
| 38338 | -- | 3.94 | 0 | 61 | 38 | 59 | 5.10 | -82 | 8 | 04/20/2025 09:45 AM |